Tracking 19477 objects as of 16-Jan-2019
HD Live streaming from Space Station
objects crossing your sky now

COSMOS 1932

Track COSMOS 1932 now!
10-day predictions
COSMOS 1932 is classified as:


NORAD ID: 18957
Int'l Code: 1988-019A
Perigee: 949.3 km
Apogee: 995.0 km
Inclination: 65.0 °
Period: 104.4 minutes
Semi major axis: 7343 km
RCS: 2.9305 m2 (large)
Launch date: March 14, 1988
Source: Commonwealth of Independent States (former USSR) (CIS)
Launch site: TYURATAM MISSILE AND SPACE COMPLEX (TTMTR)
aabbcc
Your satellite tracking list
Your tracking list is empty




NASA's NSSDC Master Catalog

Two Line Element Set (TLE):
1 18957U 88019A   19016.16899307 -.00000070  00000-0  16488-4 0  9995
2 18957  65.0431 246.9412 0031100  56.2119 304.1894 13.79677964555405
Source of the keplerian elements: AFSPC